Location: Bathurst
(33.4193°S, 149.5775°E)
Time: 10:11:05
(UTC+10:00)

ISS - Visible Passes

Search period start: 08 July 2020 00:00
Search period end: 18 July 2020 00:00
Orbit: 417 x 421 km, 51.6° (Epoch: 08 July)

Date Brightness Start Highest point End Pass type
(mag) Time Alt. Az. Time Alt. Az. Time Alt. Az.
08 Jul -3.2 18:35:46 10° SW 18:38:42 43° SSE 18:38:42 43° SSE visible
09 Jul -2.6 17:48:27 10° SSW 17:51:27 27° SE 17:54:13 11° E visible
09 Jul -1.1 19:25:21 10° WSW 19:27:17 21° WNW 19:27:17 21° WNW visible
10 Jul -2.7 18:37:23 10° WSW 18:40:40 45° NW 18:43:17 15° NNE visible
11 Jul -3.7 17:49:41 10° SW 17:53:08 89° SE 17:56:32 10° NE visible
12 Jul -0.4 18:40:20 10° W 18:41:58 13° NW 18:43:36 10° NNW visible
13 Jul -1.0 17:51:42 10° WSW 17:54:30 24° NW 17:57:18 10° N visible
17 Jul 0.0 06:34:10 10° NE 06:35:20 11° NE 06:36:31 10° ENE visible
